CAPE
0 0 0 0 0 0 0 0 0 0 0 0 0 0 0 0 0 1 4 3 4 7 11 15 15 11 11 6 9 10 11 9 14 11 10 9 5 6 7 11 9 6 1
0 0 0 0 0 0 0 0 0 0 0 0 0 0 0 0 0 0 0 0 3 6 10 12 8 7 8 9 10 10 12 14 13 12 10 11 15 11 8 6 6 10 10
0 0 0 0 0 0 0 0 0 0 0 0 0 0 0 0 0 0 0 0 0 8 9 9 8 12 15 19 24 14 12 26 25 18 22 24 17 17 16 16 11 12 12
0 0 0 0 0 0 0 0 0 0 0 0 0 0 0 0 0 0 0 0 0 2 5 7 8 10 17 17 23 33 30 36 32 32 32 27 24 25 23 17 16 15 17
0 0 0 0 0 0 0 0 0 0 0 0 0 0 0 0 0 0 0 0 0 0 0 2 4 7 8 12 21 40 42 41 40 36 29 17 26 19 25 28 17 14 21
0 0 0 0 0 0 0 0 0 0 0 0 0 0 0 0 0 0 0 0 2 3 1 0 0 0 6 12 20 20 25 32 30 27 32 35 33 29 33 25 33 30 30
0 0 0 0 0 0 0 0 0 0 0 0 0 0 0 0 0 0 0 0 3 6 4 2 0 0 0 4 10 21 29 34 39 42 41 36 26 21 44 45 43 43 40
0 0 0 0 0 0 0 0 0 0 0 0 0 0 0 0 0 0 0 0 5 7 6 5 4 2 2 2 7 14 22 25 31 42 34 24 29 37 33 48 56 59 57
0 0 0 0 0 0 0 0 0 0 0 0 0 0 0 0 0 0 0 0 6 8 7 6 5 2 2 3 5 8 14 14 24 35 35 40 42 43 45 47 59 54 51
0 0 0 0 0 0 0 0 0 0 0 0 0 0 0 0 0 0 0 0 4 6 11 11 11 6 3 5 12 5 8 7 18 25 38 44 46 50 53 49 48 59 49
0 0 0 0 0 0 0 0 0 0 0 0 0 0 0 0 0 0 0 0 0 5 11 11 6 4 7 6 11 3 7 6 6 23 30 44 51 51 47 50 46 55 60
0 0 0 0 0 0 0 0 0 0 0 0 0 0 0 0 0 0 0 0 0 5 6 7 8 6 8 7 5 1 6 5 10 16 26 36 38 38 31 37 49 59 60
0 0 0 0 0 0 0 0 0 0 0 0 0 0 0 0 0 0 0 0 0 4 10 9 9 5 4 9 8 3 3 5 9 13 16 19 35 27 27 41 49 57 57
0 0 0 0 0 0 0 0 0 0 0 0 0 0 0 0 0 0 0 0 0 0 8 4 6 8 9 11 5 2 2 2 5 7 15 16 22 29 34 36 42 37 28
0 0 0 0 0 0 0 0 0 0 0 0 0 0 0 0 0 0 0 0 0 0 0 5 4 10 6 8 4 5 0 3 5 8 7 13 15 21 34 36 38 31 27
0 0 0 0 0 0 0 0 0 0 0 0 0 0 0 0 0 0 0 1 0 0 0 5 5 11 1 4 3 3 0 2 5 6 9 17 23 31 23 32 35 28 26
0 0 0 0 0 0 0 0 0 0 0 0 0 0 0 0 0 0 1 1 1 0 0 7 9 5 1 2 6 3 0 1 9 5 7 10 15 35 16 18 23 25 22
0 0 0 0 0 0 0 0 0 0 0 0 0 0 0 0 0 1 2 3 5 4 0 5 4 6 4 0 5 6 0 0 0 0 4 8 9 20 24 12 14 15 14
0 0 0 0 0 0 0 0 0 0 0 0 0 0 0 0 0 0 3 6 4 0 4 3 2 0 2 0 0 3 6 1 0 0 0 2 7 13 26 14 12 13 15
1 0 0 0 0 0 0 0 0 0 0 0 0 0 0 0 0 0 1 5 5 1 1 0 0 0 0 0 0 0 1 2 0 0 0 0 0 5 15 18 11 11 12
0 0 0 0 0 0 0 0 0 0 0 0 0 0 0 0 0 1 0 1 2 0 0 0 0 0 0 0 2 2 0 2 3 1 0 0 0 1 13 21 23 14 8
0 0 0 0 0 0 0 0 0 0 0 0 0 0 0 0 0 0 0 0 0 0 0 0 0 0 0 0 0 2 0 0 0 6 6 1 0 1 7 17 31 18 12
0 0 0 0 0 0 0 0 0 0 0 0 0 0 0 0 0 0 0 0 0 0 0 0 0 0 0 0 0 0 0 0 0 0 4 1 1 2 3 7 13 23 26
0 1 2 0 1 1 0 0 0 2 2 3 7 2 2 1 1 0 0 0 0 0 1 1 1 2 1 0 0 0 0 0 0 1 0 1 11 10 4 7 8 7 12
1 1 1 2 1 6 2 0 0 1 1 2 2 1 1 2 0 0 0 1 3 7 3 0 0 0 0 0 0 0 0 0 0 2 6 7 12 10 12 17 13 3 3
3 5 5 1 1 4 3 0 0 0 0 0 1 1 0 0 0 0 0 0 1 5 6 0 0 0 0 0 0 0 0 0 0 3 3 8 3 10 9 12 12 14 17
CIN
0 0 0 0 0 0 0 0 0 0 0 0 0 0 0 0 0 0 0 0 0 0 0 0 0 0 0 0 0 0 0 0 0 0 0 0 0 0 0 -0 -0 0 0
0 0 0 0 0 0 0 0 0 0 0 0 0 0 0 0 0 0 0 0 0 0 0 0 0 0 0 0 0 0 0 0 0 0 0 0 -0 0 0 0 0 -0 0
0 0 0 0 0 0 0 0 0 0 0 0 0 0 0 0 0 0 0 0 0 0 0 0 0 0 0 0 0 0 0 0 0 0 0 0 0 0 0 0 0 0 0
0 0 0 0 0 0 0 0 0 0 0 0 0 0 0 0 0 0 0 0 0 0 0 0 0 0 0 0 0 0 0 0 0 0 0 0 0 0 0 0 0 0 0
0 0 0 0 0 0 0 0 0 0 0 0 0 0 0 0 0 0 0 0 0 0 0 0 0 0 0 0 0 0 0 0 0 0 0 0 0 0 0 0 0 0 0
0 0 0 0 0 0 0 0 0 0 0 0 0 0 0 0 0 0 0 0 0 0 0 0 0 0 0 0 0 0 0 0 0 0 0 0 0 0 0 0 0 0 0
0 0 0 0 0 0 0 0 0 0 0 0 0 0 0 0 0 0 0 0 0 0 0 0 0 0 0 0 0 0 0 0 0 0 0 0 0 0 0 0 0 0 0
0 0 0 0 0 0 0 0 0 0 0 0 0 0 0 0 0 0 0 0 0 0 0 0 0 0 0 0 0 0 0 0 0 0 0 0 0 0 0 0 0 0 0
0 0 0 0 0 0 0 0 0 0 0 0 0 0 0 0 0 0 0 0 0 0 0 0 0 0 0 0 0 0 0 0 0 0 0 0 0 0 0 -0 0 0 0
0 0 0 0 0 0 0 0 0 0 0 0 0 0 0 0 0 0 0 0 0 0 0 0 0 0 0 0 0 0 0 0 0 0 0 0 0 0 0 0 0 0 0
0 0 0 0 0 0 0 0 0 0 0 0 0 0 0 0 0 0 0 0 0 0 0 -0 0 0 0 0 0 0 0 0 0 0 0 0 0 0 0 0 0 0 0
0 0 0 0 0 0 0 0 0 0 0 0 0 0 0 0 0 0 0 0 0 0 0 0 0 0 0 0 0 0 0 0 0 0 0 0 0 0 0 0 0 0 0
0 0 0 0 0 0 0 0 0 0 0 0 0 0 0 0 0 0 0 0 0 0 0 -0 0 0 0 0 0 0 0 0 0 0 0 0 0 0 0 0 0 0 0
0 0 0 0 0 0 0 0 0 0 0 0 0 0 0 0 0 0 0 0 0 0 0 0 0 0 0 0 0 0 0 0 0 0 0 0 0 0 0 0 0 0 0
0 0 0 0 0 0 0 0 0 0 0 0 0 0 0 0 0 0 0 0 0 0 0 0 0 0 0 0 0 0 0 0 0 0 0 0 0 0 0 0 0 0 0
0 0 0 0 0 0 0 0 0 0 0 0 0 0 0 0 0 0 0 0 0 0 0 0 -0 0 0 0 0 0 0 0 0 0 -0 0 0 0 0 0 0 0 0
-0 0 0 0 0 0 0 0 0 0 0 0 0 0 0 0 0 0 0 0 0 0 0 0 0 0 0 0 0 0 0 0 0 0 0 0 0 0 0 0 0 0 0
0 0 0 0 0 0 0 0 0 0 0 0 0 0 0 0 0 0 0 0 0 0 0 0 0 0 0 0 0 0 0 0 0 0 0 0 0 0 0 0 0 0 0
-1 -0 0 0 0 0 0 0 0 0 0 0 0 0 0 0 0 0 0 0 0 0 0 0 0 0 0 0 0 0 0 0 0 0 0 0 0 0 0 0 0 0 0
0 0 0 0 0 0 0 0 0 0 0 0 0 0 0 0 0 0 0 0 0 0 0 0 0 0 0 0 0 0 0 0 0 0 0 0 0 0 0 0 0 0 0
-0 0 0 0 0 0 0 0 0 0 0 0 0 0 0 0 0 0 0 0 0 0 0 0 0 0 0 0 0 0 0 0 0 0 0 0 0 0 0 0 0 0 0
0 0 0 0 0 0 0 0 0 0 0 0 0 0 0 0 0 0 0 0 0 0 0 0 0 0 0 0 0 0 0 0 0 0 0 0 0 0 0 0 0 0 0
0 0 0 0 0 0 0 0 0 0 0 0 0 0 0 0 0 0 0 0 0 0 0 0 0 0 0 0 0 0 0 0 0 0 0 0 0 0 0 0 0 0 0
0 0 -0 -0 0 -0 0 0 0 0 0 0 0 0 0 0 0 0 0 0 0 0 0 0 0 0 0 0 0 0 0 0 0 0 0 0 0 0 0 0 0 0 0
-0 -0 -0 0 -0 0 0 0 0 0 0 0 0 0 0 0 0 0 0 0 0 0 0 0 0 0 0 0 0 0 0 0 0 0 0 0 0 0 0 0 0 0 0
-0 0 0 -0 -0 0 0 0 0 0 0 0 0 0 0 0 0 0 0 0 0 0 0 0 0 0 0 0 0 0 0 0 0 0 0 0 0 0 0 0 0 0 0
Wind_Speed
6 6 6 6 6 7 7 7 7 7 9 9 9 10 11 11 11 7 8 16 15 14 14 14 14 15 16 16 16 16 17 17 18 18 18 18 18 18 18 18 19 20 21
8 7 7 6 6 7 7 7 7 7 8 9 10 11 11 10 11 10 7 10 15 15 14 16 15 15 15 16 15 16 17 18 18 19 18 18 18 19 20 20 21 21 21
10 9 8 7 7 7 9 9 9 8 9 9 11 10 10 10 9 9 7 6 8 16 17 16 16 17 16 17 18 18 18 19 19 19 20 21 21 21 21 21 22 23 24
10 9 8 7 8 8 8 8 8 9 8 8 9 8 8 8 9 8 7 6 7 6 13 17 17 17 17 17 19 20 20 20 20 20 20 20 21 22 23 23 23 24 25
12 9 8 8 9 7 8 8 8 8 10 9 10 9 8 7 7 7 9 10 10 9 7 14 15 17 16 18 18 20 21 20 21 21 21 21 22 23 24 24 24 25 25
13 11 9 10 10 6 7 8 10 8 10 10 10 10 8 7 6 7 8 7 9 9 9 9 7 8 16 17 19 19 21 23 22 22 23 24 23 23 23 23 25 25 26
14 12 9 10 8 10 8 10 11 13 9 11 9 8 7 7 7 6 5 6 7 8 8 9 7 6 6 15 19 21 22 23 24 24 23 23 23 23 24 25 26 26 27
15 13 12 11 11 8 12 11 12 8 5 7 4 5 5 4 5 5 4 5 6 6 7 8 9 10 8 8 13 20 21 22 23 24 24 24 24 25 26 26 26 26 27
12 15 13 9 9 8 8 11 9 7 8 5 4 2 5 3 6 3 5 4 5 6 6 7 8 9 10 9 10 14 20 21 22 23 24 24 26 25 25 25 26 27 28
13 14 14 11 10 10 10 8 7 5 7 8 4 2 2 3 4 6 4 4 4 5 6 6 6 8 9 7 10 16 18 20 20 22 23 24 25 25 24 25 27 28 29
11 12 13 11 9 6 9 8 9 8 4 7 5 4 3 3 2 2 5 6 4 4 5 5 6 6 8 8 7 12 17 18 19 22 24 24 25 24 24 26 28 30 31
9 10 10 9 10 12 10 9 8 9 6 7 5 4 3 3 4 4 4 5 5 5 4 4 5 6 6 6 9 12 15 17 19 21 22 22 24 25 26 27 29 30 32
10 12 11 8 8 11 12 11 10 10 8 7 8 6 3 3 3 4 5 6 5 5 3 2 3 6 5 5 7 11 14 16 19 20 22 22 24 26 27 29 30 30 32
12 13 11 10 9 10 12 10 9 8 10 8 12 8 6 5 4 4 4 7 6 4 4 4 2 4 4 5 8 9 8 15 19 18 21 22 25 26 27 29 30 31 32
11 13 12 10 8 10 11 12 10 10 9 7 9 10 6 5 4 5 5 3 4 6 3 3 3 3 3 4 8 7 9 14 17 18 18 22 24 25 27 29 30 31 32
15 15 12 10 12 10 10 9 10 10 11 7 7 8 7 4 5 5 3 3 2 3 5 4 3 3 5 5 7 6 8 9 16 18 18 22 24 25 27 28 30 30 31
17 13 13 12 10 10 9 10 10 9 11 9 9 9 7 7 5 5 4 3 3 2 6 5 4 3 5 5 5 6 6 7 7 17 18 19 22 24 25 27 29 30 31
13 16 15 13 11 11 10 11 13 9 10 11 8 8 8 6 7 5 4 5 4 2 4 7 4 4 4 5 1 5 5 5 7 13 15 18 20 24 24 26 27 28 29
12 10 14 13 13 12 13 10 13 11 10 10 8 8 8 8 7 5 5 5 4 4 3 5 5 2 2 3 3 2 3 4 6 9 11 15 18 22 24 25 27 28 28
18 15 14 13 12 12 11 12 12 12 11 8 7 6 7 7 7 6 5 5 5 5 5 5 4 3 0 4 2 3 2 2 5 5 9 11 13 17 22 23 26 27 28
16 14 15 14 12 11 9 13 12 12 12 10 7 6 6 6 7 6 4 5 6 5 5 5 5 3 3 3 3 3 2 1 3 5 5 8 8 8 12 18 19 25 26
15 14 14 16 13 9 19 19 14 13 13 11 10 9 9 10 9 9 8 4 4 6 7 5 4 4 3 2 1 2 2 2 0 5 4 7 7 8 9 11 21 22 24
15 14 12 15 13 12 21 22 21 11 11 9 11 11 10 8 12 12 14 14 14 12 9 7 8 4 4 3 2 4 2 1 2 4 4 4 5 7 7 9 18 20 21
14 13 13 13 12 11 21 23 21 13 9 9 9 10 10 11 10 12 11 11 9 9 8 7 8 6 4 1 5 1 0 3 3 4 5 3 4 5 6 6 16 17 20
12 11 12 13 13 13 22 21 18 13 11 10 9 10 11 11 15 15 11 11 10 9 9 12 14 11 10 10 4 3 2 3 2 2 5 2 3 2 3 6 7 12 17
13 11 12 11 15 13 22 21 15 10 12 8 7 8 13 11 16 15 10 10 10 10 10 8 7 7 6 9 11 6 1 3 2 3 4 2 3 3 2 3 6 7 7
Wind_Direction
162 155 146 150 141 138 133 125 119 114 107 101 98 102 97 92 89 84 81 65 61 62 64 63 59 56 51 45 40 32 27 20 13 8 1 356 349 342 334 328 319 310 303
162 160 153 149 144 140 134 127 123 115 104 104 97 94 89 86 83 85 87 74 65 63 63 63 58 51 46 45 39 32 24 19 9 4 358 354 346 342 334 325 321 312 305
172 166 156 156 149 135 127 121 114 112 111 107 100 94 90 81 77 77 80 84 81 67 65 60 56 53 48 44 39 31 26 21 14 8 3 357 348 341 333 328 321 316 310
170 167 161 159 152 148 140 133 131 123 118 117 111 100 95 89 85 84 82 84 84 77 66 59 56 51 45 39 37 28 24 19 12 7 4 357 349 343 335 325 320 317 306
174 176 167 154 158 157 146 141 133 133 131 124 112 102 91 83 83 87 86 83 81 76 71 62 53 48 44 37 29 28 22 18 10 6 2 356 350 345 337 331 324 315 310
174 175 169 159 155 162 150 142 137 133 130 128 115 102 89 79 78 81 88 89 87 78 70 56 51 55 40 35 25 19 19 14 10 7 3 357 350 341 335 331 325 320 315
175 173 169 162 167 158 155 144 138 135 123 136 122 107 90 79 73 74 85 93 92 86 72 59 47 33 36 37 23 18 13 12 8 7 360 356 351 345 341 339 332 325 319
172 173 172 171 164 162 148 157 158 147 122 168 136 131 150 136 90 80 91 96 97 95 78 63 51 41 37 33 23 16 11 10 5 3 360 357 353 351 348 344 340 333 326
173 172 171 164 162 160 168 161 165 171 151 175 203 133 147 164 145 139 104 99 108 93 82 64 57 45 38 37 22 13 12 10 4 1 2 359 356 354 350 344 345 344 337
169 172 170 164 173 154 175 167 166 167 159 159 152 148 85 110 173 160 148 115 101 94 74 60 46 49 36 32 19 19 15 10 5 4 4 2 359 355 350 351 350 352 348
167 166 163 156 146 161 151 160 163 165 169 149 141 150 130 146 131 158 150 152 122 103 65 58 47 43 44 31 28 23 17 12 12 7 7 3 360 356 355 358 0 353 356
157 162 159 155 160 147 151 146 149 148 157 143 139 143 165 164 168 161 124 143 138 131 109 78 45 49 50 41 31 27 14 13 15 13 8 4 3 2 3 5 5 360 355
163 163 152 149 157 152 145 145 138 134 136 143 125 117 126 100 139 123 124 128 150 146 134 114 70 64 50 46 29 19 24 14 20 13 10 7 10 10 11 9 9 4 2
155 149 140 136 146 159 140 139 134 120 123 126 122 122 114 108 131 124 132 146 128 146 143 140 82 59 49 35 30 19 33 16 23 17 13 11 15 17 17 16 13 9 10
133 125 125 130 143 162 144 149 125 127 126 127 120 114 128 115 117 115 119 162 166 161 141 169 144 77 49 50 24 33 30 29 23 22 19 16 18 22 22 20 18 14 15
130 134 134 143 150 157 152 137 126 133 132 121 115 117 106 127 122 102 120 127 110 144 131 148 109 92 37 76 44 46 47 38 27 26 25 22 19 22 28 25 21 20 19
134 139 143 140 152 155 159 137 134 134 124 137 113 128 146 152 136 132 147 132 105 96 126 120 122 89 71 56 73 52 48 43 41 30 28 22 20 25 32 28 23 22 23
142 159 154 147 158 159 162 164 132 153 151 119 134 156 155 152 140 148 154 135 133 112 127 125 118 117 84 58 111 49 45 42 40 37 33 31 26 23 30 28 24 23 26
142 160 144 154 160 159 164 162 142 141 130 122 160 167 161 157 149 151 152 151 150 144 131 128 116 101 100 45 73 115 40 46 47 42 41 40 38 25 29 29 27 26 26
145 157 167 150 153 160 155 157 142 138 118 135 150 163 162 156 153 153 153 156 165 153 118 115 103 119 177 72 15 357 133 59 29 28 56 37 39 39 29 35 30 31 29
155 169 151 137 148 151 155 158 139 130 131 135 140 149 145 144 144 152 165 170 173 153 135 125 127 157 108 77 25 350 322 268 102 13 38 36 36 34 31 27 36 31 32
144 160 154 139 150 161 157 136 146 137 137 143 145 141 139 133 130 137 127 147 162 150 127 135 129 105 97 115 179 299 339 311 223 59 338 46 25 40 33 23 24 42 38
150 153 150 139 153 149 154 150 142 133 140 153 153 145 137 138 134 130 123 110 92 88 89 125 126 117 128 141 230 212 126 39 43 24 292 60 33 48 41 30 21 30 42
149 150 144 139 138 149 153 152 137 125 145 158 156 151 144 154 150 147 139 121 113 99 92 90 93 89 65 68 232 273 246 116 135 76 337 24 15 56 43 41 32 28 31
139 140 138 137 144 163 155 154 135 142 153 158 162 155 157 160 161 157 143 137 129 116 115 106 92 81 69 56 28 215 186 221 142 62 25 335 30 347 53 42 40 38 39
135 135 133 146 154 151 158 158 146 147 149 154 168 165 168 170 166 166 154 157 154 149 144 130 113 89 72 59 49 46 80 111 117 151 45 301 8 337 183 68 39 26 24